LogoCoinalyze
    Ad-Free Version Главная Рынки Ставки финансирования
    Фьючерсные данные
    • Агрегированные данные (Коины)
    • Индивидуальные графики
    • Глобальные графики
    Оповещения
    TA
    Bitcoin Ethereum BNB Ripple Tron ZCash Dogecoin Monero UNUS SED LEO Chainlink Cardano Stellar Lumens Bitcoin Cash Litecoin Hedera Cronos Polkadot Ethereum Classic Algorand Quant Cosmos VeChain Dash Bitcoin SV BitTorrent Terra Decred Tezos Iota The Graph THETA MultiversX Decentraland NEO Chiliz Golem Basic Attention Token Horizen Qtum 0x DigiByte Beam RIF Token FTX Token Holo FUNToken aelf Zilliqa Ontology Nano Enjin Coin Ravencoin Verge Mask Network Siacoin Status WINk Waves IoTeX Power Ledger iExec RLC Steem Kyber Network Crystal Lisk Ark Ardor WOO Network IOST WAX Icon Storj Wanchain Loopring Bitcoin Diamond Augur AdEx Bitcoin Gold OmiseGO NEM MonaCoin BitShares Ren V Systems Komodo Nuls Mithril SOLVE EOS Maker Aion Nebulas HedgeTrade Bread Fetch.ai TomoChain Polygon Fantom Waltonchain GXChain Bytom Metaverse ETP MaidSafeCoin QASH
    Заказать:
    Еще
    • API
    • Паттерны свечей
    • Пожертвования
    • Контактная
    • Карта сайта
    • Privacy Policy
    • Disclaimer
    • Theme:
    Русский
    • English
    • Français
    • Deutsch
    • Türkçe
    • Nederlands
    • Português (BR)
    • Español
    • 한국어
    • 简体中文
    • 日本語
     
    Войти / Подписаться
    Markets/ Pepe/ PEPE к USDC/ PEPEUSDC Binance
    Trades
    WL
    Чат
    Стат
    Новости
    ⦷
    AAA
    0.00000345 2286971.00000000 04:06:51
    0.00000345 1838329.00000000 04:02:52
    0.00000346 16083815.00000000 04:00:10
    0.00000346 28323699.00000000 04:00:04
    0.00000346 52485549.00000000 04:00:03
    0.00000346 594797687.00000000 04:00:03
    0.00000346 174855491.00000000 04:00:03
    0.00000346 509537572.00000000 04:00:03
    0.00000345 11573948.00000000 03:59:48
    0.00000345 11090448.00000000 03:59:23
    0.00000345 17147178.00000000 03:58:58
    0.00000345 1581934.00000000 03:58:53
    0.00000345 6352022.00000000 03:58:37
    0.00000345 27434591.00000000 03:58:18
    0.00000345 14848824.00000000 03:57:58
    0.00000345 25668499.00000000 03:57:33
    0.00000345 5774565.00000000 03:57:12
    0.00000345 24489261.00000000 03:56:58
    0.00000345 17508304.00000000 03:56:33
    0.00000345 8736683.00000000 03:56:01
    0.00000345 2905064.00000000 03:56:00
    0.00000345 23630255.00000000 03:55:58
    0.00000345 3841957.00000000 03:55:54
    0.00000345 383370.00000000 03:54:51
    0.00000345 4807637.00000000 03:49:52
    0.00000345 997218.00000000 03:49:14
    0.00000345 435414.00000000 03:49:14
    0.00000345 435414.00000000 03:49:14
    0.00000345 435414.00000000 03:49:14
    0.00000345 286266015.00000000 03:49:11
    0.00000345 704592922.00000000 03:49:06
    0.00000345 297471000.00000000 03:49:05
    0.00000345 108540341.00000000 03:49:01
    0.00000345 435414.00000000 03:49:00
    0.00000345 435414.00000000 03:49:00
    0.00000345 435414.00000000 03:49:00
    0.00000345 968328979.00000000 03:48:57
    0.00000345 997218.00000000 03:48:57
    0.00000345 178083579.00000000 03:48:57
    0.00000345 126294018.00000000 03:48:55
    0.00000345 125296800.00000000 03:48:55
    0.00000345 359024022.00000000 03:48:55
    0.00000345 238891613.00000000 03:48:55
    0.00000345 67255866.00000000 03:48:55
    0.00000345 296600141.00000000 03:48:55
    0.00000345 290109716.00000000 03:48:55
    0.00000345 332446.00000000 03:48:55
    0.00000345 348365300.00000000 03:48:55
    0.00000345 198201800.00000000 03:48:50
    0.00000345 435414.00000000 03:48:50
    0.00000345 435414.00000000 03:48:50
    0.00000345 435414.00000000 03:48:50
    0.00000345 435414.00000000 03:48:49
    0.00000345 435414.00000000 03:48:49
    0.00000345 435414.00000000 03:48:49
    0.00000345 63773643.00000000 03:48:45
    0.00000345 60345268.00000000 03:48:45
    0.00000345 435414.00000000 03:48:45
    0.00000345 98437500.00000000 03:48:44
    0.00000345 66782745.00000000 03:48:29
    0.00000345 435414.00000000 03:48:24
    0.00000344 1461518.00000000 03:46:54
    0.00000345 435414.00000000 03:45:02
    0.00000345 320080752.00000000 03:44:48
    0.00000345 27093969.00000000 03:44:03
    0.00000344 1044252.00000000 03:42:51
    0.00000345 247920730.00000000 03:41:35
    0.00000345 17433600.00000000 03:41:35
    0.00000346 1474789.00000000 03:40:03
    0.00000345 4524993.00000000 03:39:05
    0.00000345 61915059.00000000 03:39:05
    0.00000345 137173008.00000000 03:39:05
    0.00000345 260732975.00000000 03:39:03
    0.00000345 73958240.00000000 03:39:01
    0.00000345 435414.00000000 03:39:01
    0.00000345 857437.00000000 03:38:54
    0.00000345 5217391.00000000 03:37:43
    0.00000344 6468939910.00000000 03:37:25
    0.00000345 331323.00000000 03:36:47
    0.00000345 30990800.00000000 03:36:47
    0.00000345 332406.00000000 03:36:23
    0.00000345 993969.00000000 03:36:02
    0.00000345 837735137.00000000 03:35:46
    0.00000346 283332088.00000000 03:34:14
    0.00000346 992892.00000000 03:33:52
    0.00000346 301821568.00000000 03:33:52
    0.00000346 100584940.00000000 03:33:52
    0.00000346 4535418433.00000000 03:33:52
    0.00000346 4819913144.00000000 03:33:49
    0.00000346 66352008.00000000 03:31:51
    0.00000346 902941219.00000000 03:31:26
    0.00000346 26100000.00000000 03:31:26
    0.00000346 177546870.00000000 03:31:09
    0.00000346 106273000.00000000 03:31:09
    0.00000346 990738.00000000 03:30:58
    0.00000346 85102017.00000000 03:30:58
    0.00000346 654286632.00000000 03:30:58
    0.00000346 125627046.00000000 03:30:58
    0.00000346 749532.00000000 03:30:55
    0.00000346 852904729.00000000 03:30:05
    Выйти
    AAA
    Помощь
    🙂 🤣 😎 🤗 😛 😉 😜 🤑 🤔 😑 😴 😕 🙃 😲 😇 🙁 😢 😬 😟 😠 🕺 🏃 💪 ✌ 👌 👍 👎 👏 👋 🤝 🍺 🍻 🐋 🐟 🦈 🗽 🚄 ✈ 🛑 🚀 🏦 🌚 ⭐ 🌞 ⚡ 🏆 💰 💲 🔨 ❓ ❗ 💯 🔶 🏁
    ☺
    Войти или Подписаться и Чат
    24 Часа
    Изменения
    -0.58%
    Объем
    433,751,339,999
    Хай
    0.00000349
    Лоу
    0.00000336
    7 Дней
    Изменения
    -10.39%
    Объем
    3,291,089,134,024
    Хай
    0.00000401
    Лоу
    0.00000336
    30 Дней
    Изменения
    +18.56%
    Объем
    18,327,168,877,837
    Хай
    0.00000455
    Лоу
    0.00000252
    DOGE, SHIB, PEPE, or Something Else: Which Meme Coin Can Make History in September? (3 AIs Weigh In)
    "DOGE remains the most likely to record the largest move in dollar terms and lead the entire sector," ChatGPT stated.
    cryptopotato.com
    Sept 3, 2026 00:41
    Pepe price rallies 25% as whale demand and futures interest surge
    Key takeaways Pepe has gained 25% this week, including a combined 22% advance over the previous two days. Seven whale transactions worth more than $1 million each occurred Thursday, the highest...
    coinjournal.net
    Aug 21, 2026 08:41
    PEPE Supply on Exchanges Just Took a Massive Hit – What’s Next?
    A drop in PEPE exchange balances has added to bullish expectations despite muted trader interest.
    cryptopotato.com
    Aug 6, 2026 20:02
    PEPE Exchange Outflows Hit Nearly 2-Year High as Whales Accumulate
    Pepe (PEPE) recorded its largest single-day exchange outflow since November 2024, with 4.54 trillion tokens leaving trading platforms, signaling that holders are moving supply away from immediate...
    beincrypto.com
    Aug 6, 2026 04:57
    Meme Coin Based on White House Shooter Conspiracy Rallies 320%
    $HENRY surged 300% after a 2023 Pepe tweet appeared to name the White House shooter, fueling a viral time-travel meme. The post Meme Coin Based on White House Shooter Conspiracy Rallies 320%...
    beincrypto.com
    Apr 27, 2026 16:11
    PEPE surges 4% as market sentiment improves, eyes Key resistance breakout
    Key takeaways Pepe extends gains on Wednesday, stretching its rally from the 50-day EMA. Derivatives data show heightened retail activity as risk-on sentiment returns to the market. Pepe (PEPE) is...
    coinjournal.net
    Apr 22, 2026 11:44
    Why The PEPE Price Could Stage A 55X Rally To Reach New $0.0001 ATH
    The PEPE price has now started to edge back into bullish conversations after the recent inflows into the crypto market. The last time PEPE’s weekly chart printed the kind of structure now...
    newsbtc.com
    Apr 21, 2026 15:30
    Pepe (PEPE) surges 9%, drawing interest from whales
    Key takeaways PEPE is up 9% in the last 24 hours, making it one of the best performers among the top 50 cryptocurrencies by market cap. The rally comes amid renewed interest from whales and retail...
    coinjournal.net
    Apr 16, 2026 07:40
    Murad Says SPX6900 (SPX) Is Primed for a Rally — Is He Right This Time?
    Crypto influencer Murad Mahmudov claims SPX6900 (SPX) is stabilizing at the same market cap level where Dogecoin (DOGE) and Pepe (PEPE) consolidated before their explosive rallies. The...
    beincrypto.com
    Apr 5, 2026 21:36
    The Shiba Inu Of This Cycle: Analyst Shares Why It Is Better To Buy PEPE Now
    In the bull market cycle of 2021-2022, the Shiba Inu meme coin made waves in a way that changed the face of meme coins forever. This came after Dogecoin’s initial 36,000% rally, and Shiba Inu...
    newsbtc.com
    Apr 4, 2026 07:30
    PEPE Explodes by 18% Amid Altcoin Rally, BTC Tapped $74K: Market Watch
    The frog-themed meme coin is today's biggest gainer, followed by TAO, DOT, and BONK.
    cryptopotato.com
    Mar 16, 2026 10:56
    Should PEPE traders brace for volatility as short squeeze potential builds?
    The memecoin market has seen its collective market capitalization drop by 48% over the past year, and 6.9% over the past month, according to CoinMarketCap. According to Glassnode, the memecoin...
    ambcrypto.com
    Mar 7, 2026 18:00
    Просто напечатайте соответствующую команду в чате. Заменить никнейм 1 на действительный никнейм
    • /ignore nick1 Игнорировать пользователя чатом
    • /unignore nick1 Перестать игнорировать пользователя чатом
    • /ignorelist Показать проигнорированных пользователей чатом